User: anonymous   Login
Location: Theydon Bois
(51.6750°N, 0.1050°E)
Time: 16:15:16
(UTC+01:00)
Language:

Cosmos 1821 Rocket - Orbit

View from above orbital plane
View from above orbital plane
View from above satellite
View from above satellite

Ground track
Ground track

The orbit data is extracted from the following two-line orbital elements,

1 17526U 87017B   18168.94443262 -.00000030 +00000-0 -45482-4 0  9994
2 17526 082.9018 126.9100 0040887 016.6203 343.6283 13.76834549556426
Epoch (UTC): 17 June 2018 22:39:58
Eccentricity: 0.0040887
inclination: 82.9018°
perigee height: 945 km
apogee height: 1005 km
right ascension of ascending node: 126.9100°
argument of perigee: 16.6203°
revolutions per day: 13.76834549
mean anomaly at epoch: 343.6283°
orbit number at epoch: 55642

The dashed part of the orbit path shows where the satellite is in the earth's shadow,  

DLR